CAPE
968 898 812 762 851 827 761 737 658 572 528 508 515 525 534 569 606 644 640 664 730 794 811 850 812 760 701 693 645 641 645 619 557 474 444 408 326 267 164 251 280 324 352 306 209 201 146 181 181 58 176 165 155 210 246 265 195 174 249 341 411 345 372
949 872 812 756 738 706 646 628 602 513 480 481 475 473 462 448 498 555 556 567 544 623 753 822 829 744 702 688 716 744 748 704 631 588 515 462 349 258 152 115 108 159 171 170 186 130 150 100 94 160 130 68 150 215 344 387 377 277 228 303 380 441 507
722 758 713 634 547 517 533 520 471 441 431 386 358 407 402 390 436 513 548 554 546 500 490 555 575 600 667 690 687 680 721 727 690 617 562 439 302 208 145 121 121 100 61 79 62 118 109 87 83 23 85 93 26 104 263 441 468 376 288 323 381 469 517
677 692 670 620 589 451 376 240 56 220 339 317 54 300 281 374 491 540 571 553 501 440 425 358 236 323 441 516 515 492 502 541 573 591 530 416 270 194 155 121 116 140 120 110 134 110 121 120 121 55 81 99 45 105 91 182 446 439 335 335 427 499 529
760 792 827 751 469 0 0 0 35 66 74 0 114 59 0 177 403 420 400 379 343 188 4 5 6 39 133 221 300 361 402 422 469 514 509 405 270 206 193 169 162 156 156 150 138 110 110 102 131 60 74 129 95 51 45 0 54 242 324 293 372 393 403
727 731 533 329 0 0 0 3 3 1 1 0 0 3 62 0 18 20 18 16 0 22 2 4 7 10 19 74 130 204 310 377 383 392 362 308 239 197 183 182 165 131 120 122 111 91 108 191 168 124 96 16 108 130 117 97 109 36 219 366 316 226 153
176 0 0 1 0 2 3 3 4 3 3 2 4 5 3 2 2 1 1 1 1 3 6 0 1 2 4 11 58 102 140 222 276 302 301 276 249 214 181 185 184 167 184 185 149 124 83 68 61 78 82 46 64 161 153 206 199 169 148 204 339 292 245
0 0 0 1 2 1 2 3 2 4 3 3 3 4 3 3 3 2 1 1 0 0 0 0 0 0 1 4 4 32 143 185 245 306 311 302 300 290 266 232 219 236 219 206 163 169 174 153 145 156 206 138 160 191 170 148 219 188 266 252 205 259 264
0 0 0 1 2 3 2 4 3 1 0 2 2 2 2 0 1 2 2 1 1 0 0 0 0 0 1 2 4 3 7 25 106 172 180 150 124 108 103 108 105 136 154 145 158 192 219 240 223 194 139 129 125 119 31 13 104 156 189 189 195 218 232
0 0 0 0 1 1 2 2 3 1 1 2 3 2 3 2 3 4 2 2 1 0 0 0 0 0 0 2 1 2 4 4 6 9 46 131 152 157 174 148 148 140 142 128 133 142 162 191 198 160 113 126 136 89 12 0 15 130 201 170 221 212 295
0 0 0 0 0 0 0 0 1 0 0 1 4 4 6 5 4 2 2 2 1 0 0 0 0 0 0 0 0 1 3 4 4 5 7 22 152 211 198 193 174 192 152 119 108 134 174 209 197 182 170 182 167 77 2 39 32 10 73 157 166 233 204
0 0 0 0 0 0 0 0 0 0 1 4 4 5 4 3 2 4 4 2 0 0 0 0 0 0 0 2 2 0 1 2 2 5 9 8 10 92 158 191 185 164 157 150 146 133 138 148 159 148 182 235 238 138 80 56 86 5 33 36 85 204 284
0 0 0 0 0 0 0 0 0 0 0 1 1 2 1 3 4 4 2 2 0 0 0 0 0 0 0 0 0 0 0 1 1 2 5 7 10 12 52 143 183 171 160 164 155 140 153 148 206 236 174 153 231 236 204 145 115 35 19 11 108 242 277
0 0 0 0 0 0 0 0 0 0 0 0 0 0 0 0 1 1 0 0 0 0 0 0 0 0 0 0 0 0 0 0 1 1 5 7 7 8 6 15 119 195 189 169 168 176 190 147 181 210 152 194 276 285 180 117 90 12 15 32 86 191 236
0 0 0 0 0 0 0 0 0 0 0 0 0 0 0 0 2 0 0 0 0 0 0 0 0 0 0 0 0 2 1 1 1 1 1 5 7 13 4 5 9 94 126 113 148 124 182 147 102 134 262 284 242 197 158 119 94 12 21 30 39 102 204
0 0 0 0 0 0 0 0 0 0 0 0 0 0 0 0 1 0 0 0 0 0 0 0 0 0 0 0 1 0 0 0 0 0 0 2 4 6 12 4 13 8 18 28 19 44 125 142 120 220 323 360 254 214 166 136 116 105 26 52 58 63 133
0 0 0 0 0 0 0 0 0 0 0 0 0 0 0 0 0 0 0 0 0 0 0 0 0 0 0 0 0 0 0 0 0 0 0 1 3 7 47 83 56 6 28 25 48 21 62 103 146 125 212 349 371 348 295 212 190 162 8 108 100 89 68
0 0 0 0 0 0 0 1 1 0 0 0 0 0 0 0 0 0 0 0 0 0 0 0 0 0 0 0 0 0 0 0 0 0 0 0 2 5 29 85 110 6 14 29 9 80 68 26 23 30 57 255 389 390 353 295 262 193 132 146 129 140 96
0 0 0 0 0 0 0 0 4 5 0 0 0 0 0 0 0 0 0 0 0 0 0 0 0 0 0 0 0 0 0 0 0 0 0 0 2 12 11 28 83 17 20 44 125 172 177 183 64 44 52 278 354 346 304 270 104 205 142 115 95 130 110
0 0 0 0 0 0 0 0 0 0 0 0 0 0 0 0 0 0 0 0 0 0 0 0 0 0 0 0 0 0 0 0 1 5 6 8 5 7 10 10 36 47 68 114 122 126 74 136 130 149 41 195 225 250 278 239 168 123 112 142 117 96 96
0 0 0 0 0 0 0 0 0 0 0 0 0 0 0 0 0 0 0 0 0 0 0 0 0 0 0 0 0 0 0 0 3 4 4 2 6 7 9 8 41 106 116 119 105 132 164 162 154 66 177 187 164 186 228 233 209 139 98 141 122 104 47
0 0 0 0 0 0 0 0 0 0 0 0 0 0 0 0 0 0 0 0 0 0 0 0 0 1 0 0 0 0 0 0 4 4 4 3 2 2 4 5 25 158 184 129 120 110 118 118 109 110 122 146 141 181 180 169 116 69 98 75 61 68 56
0 0 0 0 0 0 0 0 0 0 0 0 0 0 0 0 0 0 0 0 0 0 0 0 0 0 0 1 0 0 0 0 0 0 3 1 1 1 1 3 6 9 12 43 78 96 132 145 142 107 127 129 126 123 147 126 85 81 121 142 73 43 21
0 0 0 0 0 0 0 0 0 0 0 0 0 0 0 0 0 0 0 0 0 0 0 0 0 0 0 0 0 0 0 0 0 0 0 1 1 1 1 1 2 5 4 5 22 81 113 68 81 134 156 172 137 112 112 111 139 145 176 167 119 79 24
0 0 0 0 0 0 0 0 0 0 0 0 0 0 0 0 0 0 0 0 0 0 0 0 0 0 0 0 0 0 0 0 0 0 0 0 1 1 1 1 3 6 5 6 6 21 48 54 52 62 89 111 111 140 138 126 137 171 168 161 154 75 0
0 0 0 0 0 0 0 0 0 0 0 0 0 0 0 0 0 0 0 0 0 0 0 0 0 0 0 0 0 0 0 0 2 0 0 0 1 1 1 2 3 2 2 6 8 3 19 43 45 35 41 65 88 96 127 146 139 139 160 164 183 108 46
0 0 0 0 0 0 0 0 0 0 0 0 0 0 0 0 0 0 0 0 0 0 0 0 0 0 0 0 0 0 0 0 0 1 1 0 1 1 1 3 4 4 2 3 4 2 4 31 52 54 37 51 86 148 153 146 157 166 146 119 133 121 112
0 0 0 0 0 0 0 0 0 0 0 0 0 0 0 0 0 0 0 0 0 0 0 0 0 0 0 0 0 0 0 0 0 0 1 1 0 0 1 3 4 4 3 2 3 4 5 3 35 54 34 26 54 113 155 185 202 193 146 124 110 101 111
0 0 0 0 0 0 0 0 0 0 0 0 0 0 0 0 0 0 0 0 0 0 0 0 0 0 0 0 0 0 0 0 0 0 0 1 1 1 1 2 2 2 2 1 2 4 8 9 10 38 24 2 11 28 43 67 90 148 182 155 122 115 124
0 0 0 0 0 0 0 0 0 0 0 0 0 0 0 0 0 0 0 0 0 0 0 0 0 0 0 0 0 0 0 0 1 1 0 1 1 1 2 2 3 2 1 1 1 0 4 10 10 5 18 4 7 22 50 73 74 92 156 207 191 166 143
0 0 0 0 0 0 0 0 0 0 0 0 0 0 0 0 0 0 0 0 0 0 0 0 0 0 0 0 0 0 0 1 1 1 1 1 0 0 2 6 9 2 0 2 0 0 0 2 10 15 5 32 29 23 47 89 107 104 99 156 243 236 196
0 0 0 0 0 0 0 0 0 0 0 0 0 0 0 0 0 0 0 0 0 0 0 0 0 0 0 0 0 0 0 0 1 1 1 0 0 0 0 3 4 3 3 0 0 0 1 2 3 20 25 11 41 29 26 37 41 78 89 95 148 199 260
0 0 0 0 0 0 0 0 0 0 0 0 0 0 0 0 0 0 0 0 0 0 0 0 0 0 0 0 0 0 0 0 0 1 1 2 2 1 2 2 2 1 0 0 0 0 0 0 0 3 19 23 18 60 25 17 49 64 68 76 82 96 132
0 0 0 0 0 0 0 0 0 0 0 0 0 0 0 0 0 0 0 0 0 0 0 0 0 0 0 0 0 0 0 0 0 0 1 2 2 1 2 1 0 1 0 0 0 0 0 0 0 3 3 13 11 11 46 17 43 72 82 83 84 78 68
0 0 0 0 0 0 0 0 0 0 0 0 0 0 0 0 0 0 0 0 0 0 0 0 0 0 0 1 2 1 0 0 0 0 0 0 0 2 0 0 0 0 0 0 0 0 0 0 0 3 0 0 6 7 1 18 37 81 98 71 69 60 53
0 0 0 0 0 0 0 0 0 0 0 0 0 0 0 0 0 0 0 0 0 0 0 0 0 0 0 0 1 1 1 1 0 0 0 0 0 0 0 0 0 0 0 0 0 0 0 0 0 0 0 0 0 4 6 16 38 69 57 45 49 56 50
0 0 0 0 0 0 0 0 0 0 0 0 0 0 0 0 0 0 0 0 0 0 0 0 0 0 0 4 5 5 4 1 0 0 0 0 0 0 0 0 0 0 0 1 2 0 0 0 0 0 0 3 4 4 20 10 12 24 42 49 50 49 45
Wind_Speed
23 20 20 19 19 19 21 21 21 22 21 22 23 23 24 24 24 23 23 24 25 25 27 27 26 24 24 24 24 22 20 21 21 19 17 20 21 21 26 23 23 23 22 23 25 26 27 26 31 nan 31 29 29 28 28 30 30 28 30 32 32 29 26
24 24 22 21 21 20 21 20 21 22 22 22 23 23 24 24 25 24 24 24 24 24 27 27 26 25 23 22 21 20 20 20 22 21 20 20 22 20 21 24 23 23 24 25 25 30 30 28 nan 32 32 nan 30 28 28 30 32 30 29 30 32 30 26
28 27 26 25 24 23 22 21 21 21 21 22 24 25 25 24 24 25 25 25 25 25 25 25 25 24 23 22 22 21 20 20 22 23 21 20 21 21 23 23 23 24 nan nan nan 31 32 nan nan nan nan nan nan 28 28 29 31 32 29 28 30 27 24
30 30 30 29 27 27 25 24 nan 21 22 22 nan 25 26 25 25 26 26 26 27 27 26 26 25 23 23 23 23 21 21 20 22 22 21 22 22 23 23 26 25 25 25 26 28 32 33 33 32 nan nan nan nan 29 nan 26 30 32 30 26 28 25 23
33 32 32 31 30 nan nan nan nan nan nan nan 25 nan nan 27 27 27 28 28 28 26 nan nan nan nan 24 23 22 22 23 22 21 22 22 22 23 24 24 26 26 27 28 29 30 32 33 34 35 nan nan 31 nan nan nan nan nan 30 29 25 26 25 22
34 34 33 32 nan nan nan nan nan nan nan nan nan nan nan nan nan nan nan nan nan nan nan nan nan nan nan nan 23 22 23 23 24 23 23 22 22 22 23 25 26 27 28 30 31 nan 33 34 36 31 nan nan 30 31 31 nan 29 nan 29 26 27 27 24
34 nan nan nan nan nan nan nan nan nan nan nan nan nan nan nan nan nan nan nan nan nan nan nan nan nan nan nan nan 23 23 24 24 22 21 21 21 22 25 25 26 27 29 31 32 32 nan nan nan nan nan nan nan 30 34 31 32 31 28 26 29 29 27
nan nan nan nan nan nan nan nan nan nan nan nan nan nan nan nan nan nan nan nan nan nan nan nan nan nan nan nan nan nan 25 26 25 23 24 23 22 23 24 25 26 27 28 30 31 33 34 35 34 32 30 29 34 33 33 31 33 27 28 29 29 27 26
nan nan nan nan nan nan nan nan nan nan nan nan nan nan nan nan nan nan nan nan nan nan nan nan nan nan nan nan nan nan nan nan 25 22 24 24 24 23 24 25 26 27 28 29 31 32 33 34 33 31 31 30 30 32 nan nan 30 26 29 30 29 26 27
nan nan nan nan nan nan nan nan nan nan nan nan nan nan nan nan nan nan nan nan nan nan nan nan nan nan nan nan nan nan nan nan nan nan nan 25 25 25 27 27 28 27 28 29 29 31 32 32 30 29 30 30 31 nan nan nan nan 28 29 28 30 29 30
nan nan nan nan nan nan nan nan nan nan nan nan nan nan nan nan nan nan nan nan nan nan nan nan nan nan nan nan nan nan nan nan nan nan nan nan 25 26 25 26 28 29 30 30 30 33 32 30 29 28 29 30 31 nan nan nan nan nan nan 28 29 34 34
nan nan nan nan nan nan nan nan nan nan nan nan nan nan nan nan nan nan nan nan nan nan nan nan nan nan nan nan nan nan nan nan nan nan nan nan nan nan 25 25 26 28 29 29 30 32 30 28 27 27 28 30 30 29 nan nan nan nan nan nan nan 32 36
nan nan nan nan nan nan nan nan nan nan nan nan nan nan nan nan nan nan nan nan nan nan nan nan nan nan nan nan nan nan nan nan nan nan nan nan nan nan nan 24 25 27 28 29 29 31 29 27 26 27 28 29 29 30 30 30 25 nan nan nan 28 28 32
nan nan nan nan nan nan nan nan nan nan nan nan nan nan nan nan nan nan nan nan nan nan nan nan nan nan nan nan nan nan nan nan nan nan nan nan nan nan nan nan 23 26 26 25 28 30 29 26 27 28 28 29 29 30 29 29 nan nan nan nan nan 25 27
nan nan nan nan nan nan nan nan nan nan nan nan nan nan nan nan nan nan nan nan nan nan nan nan nan nan nan nan nan nan nan nan nan nan nan nan nan nan nan nan nan nan 27 26 26 27 26 25 26 26 27 29 29 29 30 30 nan nan nan nan nan 27 26
nan nan nan nan nan nan nan nan nan nan nan nan nan nan nan nan nan nan nan nan nan nan nan nan nan nan nan nan nan nan nan nan nan nan nan nan nan nan nan nan nan nan nan nan nan nan 24 23 24 25 26 29 29 29 31 30 30 26 nan nan nan nan 23
nan nan nan nan nan nan nan nan nan nan nan nan nan nan nan nan nan nan nan nan nan nan nan nan nan nan nan nan nan nan nan nan nan nan nan nan nan nan nan nan nan nan nan nan nan nan nan 23 23 24 26 28 28 30 33 33 30 28 nan 28 29 nan nan
nan nan nan nan nan nan nan nan nan nan nan nan nan nan nan nan nan nan nan nan nan nan nan nan nan nan nan nan nan nan nan nan nan nan nan nan nan nan nan nan 23 nan nan nan nan nan nan nan nan nan nan 28 28 29 34 33 30 32 34 29 27 28 nan
nan nan nan nan nan nan nan nan nan nan nan nan nan nan nan nan nan nan nan nan nan nan nan nan nan nan nan nan nan nan nan nan nan nan nan nan nan nan nan nan nan nan nan nan 23 23 23 21 nan nan nan 27 27 30 32 34 33 32 30 28 nan 29 29
nan nan nan nan nan nan nan nan nan nan nan nan nan nan nan nan nan nan nan nan nan nan nan nan nan nan nan nan nan nan nan nan nan nan nan nan nan nan nan nan nan nan nan 29 27 23 nan 19 22 23 nan 26 27 28 30 30 30 31 31 29 29 nan nan
nan nan nan nan nan nan nan nan nan nan nan nan nan nan nan nan nan nan nan nan nan nan nan nan nan nan nan nan nan nan nan nan nan nan nan nan nan nan nan nan nan 30 30 29 28 27 28 24 20 nan 25 26 27 28 29 31 31 31 nan 30 30 31 nan
nan nan nan nan nan nan nan nan nan nan nan nan nan nan nan nan nan nan nan nan nan nan nan nan nan nan nan nan nan nan nan nan nan nan nan nan nan nan nan nan nan 32 31 31 30 30 29 27 26 25 25 26 27 28 29 31 34 nan nan nan nan nan nan
nan nan nan nan nan nan nan nan nan nan nan nan nan nan nan nan nan nan nan nan nan nan nan nan nan nan nan nan nan nan nan nan nan nan nan nan nan nan nan nan nan nan nan nan nan nan 31 28 26 25 25 27 26 27 27 30 nan nan 36 35 nan nan nan
nan nan nan nan nan nan nan nan nan nan nan nan nan nan nan nan nan nan nan nan nan nan nan nan nan nan nan nan nan nan nan nan nan nan nan nan nan nan nan nan nan nan nan nan nan nan 31 nan nan 25 23 22 24 25 26 28 32 37 38 37 36 nan nan
nan nan nan nan nan nan nan nan nan nan nan nan nan nan nan nan nan nan nan nan nan nan nan nan nan nan nan nan nan nan nan nan nan nan nan nan nan nan nan nan nan nan nan nan nan nan nan nan nan nan nan 21 21 22 22 24 30 35 38 38 36 nan nan
nan nan nan nan nan nan nan nan nan nan nan nan nan nan nan nan nan nan nan nan nan nan nan nan nan nan nan nan nan nan nan nan nan nan nan nan nan nan nan nan nan nan nan nan nan nan nan nan nan nan nan nan nan nan 23 22 24 30 37 36 36 36 nan
nan nan nan nan nan nan nan nan nan nan nan nan nan nan nan nan nan nan nan nan nan nan nan nan nan nan nan nan nan nan nan nan nan nan nan nan nan nan nan nan nan nan nan nan nan nan nan nan nan nan nan nan nan 24 25 25 25 26 32 35 36 35 34
nan nan nan nan nan nan nan nan nan nan nan nan nan nan nan nan nan nan nan nan nan nan nan nan nan nan nan nan nan nan nan nan nan nan nan nan nan nan nan nan nan nan nan nan nan nan nan nan nan nan nan nan nan 25 26 30 32 33 34 37 37 35 35
nan nan nan nan nan nan nan nan nan nan nan nan nan nan nan nan nan nan nan nan nan nan nan nan nan nan nan nan nan nan nan nan nan nan nan nan nan nan nan nan nan nan nan nan nan nan nan nan nan nan nan nan nan nan nan nan nan 30 34 37 36 35 38
nan nan nan nan nan nan nan nan nan nan nan nan nan nan nan nan nan nan nan nan nan nan nan nan nan nan nan nan nan nan nan nan nan nan nan nan nan nan nan nan nan nan nan nan nan nan nan nan nan nan nan nan nan nan nan nan nan nan 35 36 36 38 43
nan nan nan nan nan nan nan nan nan nan nan nan nan nan nan nan nan nan nan nan nan nan nan nan nan nan nan nan nan nan nan nan nan nan nan nan nan nan nan nan nan nan nan nan nan nan nan nan nan nan nan nan nan nan nan nan 33 35 nan 39 37 35 38
nan nan nan nan nan nan nan nan nan nan nan nan nan nan nan nan nan nan nan nan nan nan nan nan nan nan nan nan nan nan nan nan nan nan nan nan nan nan nan nan nan nan nan nan nan nan nan nan nan nan nan nan nan nan nan nan nan nan nan nan 39 40 41
nan nan nan nan nan nan nan nan nan nan nan nan nan nan nan nan nan nan nan nan nan nan nan nan nan nan nan nan nan nan nan nan nan nan nan nan nan nan nan nan nan nan nan nan nan nan nan nan nan nan nan nan nan nan nan nan nan nan nan nan nan nan 44
nan nan nan nan nan nan nan nan nan nan nan nan nan nan nan nan nan nan nan nan nan nan nan nan nan nan nan nan nan nan nan nan nan nan nan nan nan nan nan nan nan nan nan nan nan nan nan nan nan nan nan nan nan nan nan nan nan nan nan nan nan nan nan
nan nan nan nan nan nan nan nan nan nan nan nan nan nan nan nan nan nan nan nan nan nan nan nan nan nan nan nan nan nan nan nan nan nan nan nan nan nan nan nan nan nan nan nan nan nan nan nan nan nan nan nan nan nan nan nan nan nan nan nan nan nan nan
nan nan nan nan nan nan nan nan nan nan nan nan nan nan nan nan nan nan nan nan nan nan nan nan nan nan nan nan nan nan nan nan nan nan nan nan nan nan nan nan nan nan nan nan nan nan nan nan nan nan nan nan nan nan nan nan nan nan nan nan nan nan nan
nan nan nan nan nan nan nan nan nan nan nan nan nan nan nan nan nan nan nan nan nan nan nan nan nan nan nan nan nan nan nan nan nan nan nan nan nan nan nan nan nan nan nan nan nan nan nan nan nan nan nan nan nan nan nan nan nan nan nan nan nan nan nan
Wind_Direction
274 275 273 275 281 285 284 282 285 281 280 281 281 282 285 285 286 286 289 294 296 298 298 301 302 302 299 297 298 300 302 303 305 309 309 305 306 304 306 312 315 316 312 311 307 298 287 279 279 nan 279 280 280 282 283 284 283 280 274 262 250 251 254
271 272 272 272 271 271 272 275 277 280 281 283 283 282 282 281 284 286 287 289 295 296 298 300 300 299 298 294 292 295 299 301 303 305 307 307 307 308 304 306 308 308 306 308 308 304 297 287 nan 281 279 nan 273 274 275 276 279 281 281 267 250 249 253
271 272 272 268 267 266 266 266 271 275 278 281 282 283 281 280 283 285 285 286 289 291 293 295 295 295 295 293 294 294 297 301 301 304 305 302 303 304 308 306 306 304 nan nan nan 302 300 nan nan nan nan nan nan 274 274 277 281 283 285 268 246 246 257
273 273 272 270 270 267 266 265 nan 273 277 279 nan 281 281 282 283 284 284 284 285 284 285 283 285 288 289 287 287 288 291 295 296 300 305 306 304 304 308 306 307 309 307 306 304 301 299 295 291 nan nan nan nan 269 nan 281 280 282 287 269 243 244 258
275 276 274 274 273 nan nan nan nan nan nan nan 276 nan nan 276 279 281 279 278 280 282 nan nan nan nan 279 277 277 281 286 292 297 298 297 297 299 300 305 305 306 306 309 309 305 303 300 298 293 nan nan 270 nan nan nan nan nan 278 288 280 257 252 255
278 277 277 277 nan nan nan nan nan nan nan nan nan nan nan nan nan nan nan nan nan nan nan nan nan nan nan nan 275 274 278 283 288 291 292 292 294 297 297 300 304 306 309 308 305 nan 302 297 291 284 nan nan 266 262 257 nan 262 nan 277 281 276 267 256
277 nan nan nan nan nan nan nan nan nan nan nan nan nan nan nan nan nan nan nan nan nan nan nan nan nan nan nan nan 277 277 282 286 293 297 298 299 303 301 300 304 307 307 306 307 306 nan nan nan nan nan nan nan 263 258 259 259 264 269 275 277 270 254
nan nan nan nan nan nan nan nan nan nan nan nan nan nan nan nan nan nan nan nan nan nan nan nan nan nan nan nan nan nan 283 287 288 290 290 289 289 288 290 294 296 300 302 304 306 306 303 298 291 285 279 270 265 263 260 258 256 263 263 264 273 271 258
nan nan nan nan nan nan nan nan nan nan nan nan nan nan nan nan nan nan nan nan nan nan nan nan nan nan nan nan nan nan nan nan 280 285 289 294 297 299 299 299 301 305 304 304 306 307 306 299 290 284 280 275 270 262 nan nan 258 255 261 260 263 269 262
nan nan nan nan nan nan nan nan nan nan nan nan nan nan nan nan nan nan nan nan nan nan nan nan nan nan nan nan nan nan nan nan nan nan nan 289 293 297 299 303 302 302 303 305 308 310 308 300 291 284 282 278 273 nan nan nan nan 257 257 262 261 263 264
nan nan nan nan nan nan nan nan nan nan nan nan nan nan nan nan nan nan nan nan nan nan nan nan nan nan nan nan nan nan nan nan nan nan nan nan 286 290 295 299 303 304 305 306 308 309 306 297 289 284 281 276 272 nan nan nan nan nan nan 259 259 258 260
nan nan nan nan nan nan nan nan nan nan nan nan nan nan nan nan nan nan nan nan nan nan nan nan nan nan nan nan nan nan nan nan nan nan nan nan nan nan 289 294 298 301 304 308 311 311 308 297 289 286 280 276 273 271 nan nan nan nan nan nan nan 261 260
nan nan nan nan nan nan nan nan nan nan nan nan nan nan nan nan nan nan nan nan nan nan nan nan nan nan nan nan nan nan nan nan nan nan nan nan nan nan nan 289 295 299 302 306 309 310 307 297 288 278 274 272 272 270 260 254 254 nan nan nan 264 272 266
nan nan nan nan nan nan nan nan nan nan nan nan nan nan nan nan nan nan nan nan nan nan nan nan nan nan nan nan nan nan nan nan nan nan nan nan nan nan nan nan 288 295 299 305 307 308 305 296 287 281 275 270 269 267 262 255 nan nan nan nan nan 269 268
nan nan nan nan nan nan nan nan nan nan nan nan nan nan nan nan nan nan nan nan nan nan nan nan nan nan nan nan nan nan nan nan nan nan nan nan nan nan nan nan nan nan 294 301 305 308 305 294 287 283 279 274 270 264 259 253 nan nan nan nan nan 254 261
nan nan nan nan nan nan nan nan nan nan nan nan nan nan nan nan nan nan nan nan nan nan nan nan nan nan nan nan nan nan nan nan nan nan nan nan nan nan nan nan nan nan nan nan nan nan 302 293 286 286 284 277 272 265 256 253 248 243 nan nan nan nan 255
nan nan nan nan nan nan nan nan nan nan nan nan nan nan nan nan nan nan nan nan nan nan nan nan nan nan nan nan nan nan nan nan nan nan nan nan nan nan nan nan nan nan nan nan nan nan nan 295 287 279 274 269 266 262 255 249 249 245 nan 247 249 nan nan
nan nan nan nan nan nan nan nan nan nan nan nan nan nan nan nan nan nan nan nan nan nan nan nan nan nan nan nan nan nan nan nan nan nan nan nan nan nan nan nan 270 nan nan nan nan nan nan nan nan nan nan 270 262 256 251 248 244 243 245 247 242 241 nan
nan nan nan nan nan nan nan nan nan nan nan nan nan nan nan nan nan nan nan nan nan nan nan nan nan nan nan nan nan nan nan nan nan nan nan nan nan nan nan nan nan nan nan nan 288 297 301 299 nan nan nan 271 266 261 253 242 239 242 244 243 nan 240 241
nan nan nan nan nan nan nan nan nan nan nan nan nan nan nan nan nan nan nan nan nan nan nan nan nan nan nan nan nan nan nan nan nan nan nan nan nan nan nan nan nan nan nan 264 261 265 nan 289 290 283 nan 271 268 264 258 249 241 242 245 243 243 nan nan
nan nan nan nan nan nan nan nan nan nan nan nan nan nan nan nan nan nan nan nan nan nan nan nan nan nan nan nan nan nan nan nan nan nan nan nan nan nan nan nan nan 270 267 265 263 262 261 258 260 nan 275 272 267 264 258 249 244 243 nan 240 242 243 nan
nan nan nan nan nan nan nan nan nan nan nan nan nan nan nan nan nan nan nan nan nan nan nan nan nan nan nan nan nan nan nan nan nan nan nan nan nan nan nan nan nan 264 256 247 245 249 249 253 261 256 254 262 264 261 256 247 242 nan nan nan nan nan nan
nan nan nan nan nan nan nan nan nan nan nan nan nan nan nan nan nan nan nan nan nan nan nan nan nan nan nan nan nan nan nan nan nan nan nan nan nan nan nan nan nan nan nan nan nan nan 242 239 239 256 260 249 244 252 257 251 nan nan 244 241 nan nan nan
nan nan nan nan nan nan nan nan nan nan nan nan nan nan nan nan nan nan nan nan nan nan nan nan nan nan nan nan nan nan nan nan nan nan nan nan nan nan nan nan nan nan nan nan nan nan 240 nan nan 239 234 238 247 240 241 251 248 245 244 242 239 nan nan
nan nan nan nan nan nan nan nan nan nan nan nan nan nan nan nan nan nan nan nan nan nan nan nan nan nan nan nan nan nan nan nan nan nan nan nan nan nan nan nan nan nan nan nan nan nan nan nan nan nan nan 231 230 242 244 242 247 246 245 243 240 nan nan
nan nan nan nan nan nan nan nan nan nan nan nan nan nan nan nan nan nan nan nan nan nan nan nan nan nan nan nan nan nan nan nan nan nan nan nan nan nan nan nan nan nan nan nan nan nan nan nan nan nan nan nan nan nan 251 244 240 245 247 244 242 241 nan
nan nan nan nan nan nan nan nan nan nan nan nan nan nan nan nan nan nan nan nan nan nan nan nan nan nan nan nan nan nan nan nan nan nan nan nan nan nan nan nan nan nan nan nan nan nan nan nan nan nan nan nan nan 239 248 256 251 243 241 244 244 241 240
nan nan nan nan nan nan nan nan nan nan nan nan nan nan nan nan nan nan nan nan nan nan nan nan nan nan nan nan nan nan nan nan nan nan nan nan nan nan nan nan nan nan nan nan nan nan nan nan nan nan nan nan nan 243 247 251 253 250 247 244 241 239 236
nan nan nan nan nan nan nan nan nan nan nan nan nan nan nan nan nan nan nan nan nan nan nan nan nan nan nan nan nan nan nan nan nan nan nan nan nan nan nan nan nan nan nan nan nan nan nan nan nan nan nan nan nan nan nan nan nan 249 244 242 242 237 233
nan nan nan nan nan nan nan nan nan nan nan nan nan nan nan nan nan nan nan nan nan nan nan nan nan nan nan nan nan nan nan nan nan nan nan nan nan nan nan nan nan nan nan nan nan nan nan nan nan nan nan nan nan nan nan nan nan nan 238 234 229 227 226
nan nan nan nan nan nan nan nan nan nan nan nan nan nan nan nan nan nan nan nan nan nan nan nan nan nan nan nan nan nan nan nan nan nan nan nan nan nan nan nan nan nan nan nan nan nan nan nan nan nan nan nan nan nan nan nan 248 246 nan 238 235 231 227
nan nan nan nan nan nan nan nan nan nan nan nan nan nan nan nan nan nan nan nan nan nan nan nan nan nan nan nan nan nan nan nan nan nan nan nan nan nan nan nan nan nan nan nan nan nan nan nan nan nan nan nan nan nan nan nan nan nan nan nan 239 238 235
nan nan nan nan nan nan nan nan nan nan nan nan nan nan nan nan nan nan nan nan nan nan nan nan nan nan nan nan nan nan nan nan nan nan nan nan nan nan nan nan nan nan nan nan nan nan nan nan nan nan nan nan nan nan nan nan nan nan nan nan nan nan 238
nan nan nan nan nan nan nan nan nan nan nan nan nan nan nan nan nan nan nan nan nan nan nan nan nan nan nan nan nan nan nan nan nan nan nan nan nan nan nan nan nan nan nan nan nan nan nan nan nan nan nan nan nan nan nan nan nan nan nan nan nan nan nan
nan nan nan nan nan nan nan nan nan nan nan nan nan nan nan nan nan nan nan nan nan nan nan nan nan nan nan nan nan nan nan nan nan nan nan nan nan nan nan nan nan nan nan nan nan nan nan nan nan nan nan nan nan nan nan nan nan nan nan nan nan nan nan
nan nan nan nan nan nan nan nan nan nan nan nan nan nan nan nan nan nan nan nan nan nan nan nan nan nan nan nan nan nan nan nan nan nan nan nan nan nan nan nan nan nan nan nan nan nan nan nan nan nan nan nan nan nan nan nan nan nan nan nan nan nan nan
nan nan nan nan nan nan nan nan nan nan nan nan nan nan nan nan nan nan nan nan nan nan nan nan nan nan nan nan nan nan nan nan nan nan nan nan nan nan nan nan nan nan nan nan nan nan nan nan nan nan nan nan nan nan nan nan nan nan nan nan nan nan nan